Regional Weather Roundup
Issued by NWS

Home | Current Version | Previous Version | Text Only | Print | Product List | Glossary Off
Versions: 1 2 3 4 5 6 7 8 9 10 11 12 13 14 15 16 17 18 19 20 21 22 23 24 25 26 27 28 29 30 31 32 33 34 35 36 37 38 39 40 41 42 43 44 45 46 47 48 49 50

431
ASUS45 KABQ 242210
RWRNM
NEW MEXICO REGIONAL WEATHER ROUNDUP
NATIONAL WEATHER SERVICE ALBUQUERQUE NM
400 PM MDT SAT SEP 24 2016

NOTE: "FAIR" MEANS FEW OR NO CLOUDS BELOW 12,000 FEET AGL WITH NO
       SIGNIFICANT WEATHER OR OBSTRUCTIONS TO VISION.

      THIS PRODUCT IS RELEASED AS TWO VERSIONS.  ONE VERSION NEAR
      THE TOP OF THE HOUR CONTAINING PRELIMINARY DATA FROM ALBUQUERQUE
      AND OTHER STATIONS.  A FINAL VERSION WITH ADDITIONAL DATA IS
      ISSUED ABOUT 10 MINUTES AFTER THE HOUR.

NMZ501-503-504-510>518-242300-
NORTHWEST PLATEAU/NORTHCENTRAL MOUNTAINS

CITY           SKY/WX    TMP DP  RH WIND       PRES   REMARKS
FARMINGTON     CLOUDY    62  30  29 NW13G25   30.17R
LOS ALAMOS     FAIR      59  31  34 E10       30.19S
SANTA FE       FAIR      66  31  27 N13G18    30.13F
TAOS           FAIR      61  28  29 S8        30.16F
ANGEL FIRE     FAIR      55  30  38 W10       30.20S

$$
NMZ402-403-502-505>509-242300-
WESTCENTRAL MOUNTAINS/SOUTHWEST MOUNTAINS

CITY           SKY/WX    TMP DP  RH WIND       PRES   REMARKS
GALLUP         FAIR      65  29  25 VRB3      30.18F
SILVER CITY    FAIR      74  32  22 W7G23     30.10S

$$
NMZ407-409-411-412-242300-
SOUTHERN DESERTS

CITY           SKY/WX    TMP DP  RH WIND       PRES   REMARKS
DEMING         FAIR      79  42  26 SW10      30.03F
LAS CRUCES     FAIR      81  35  19 W17G28    30.04F
HOLLOMAN AFB   FAIR      81  38  21 VRB6      29.98F
ALAMOGORDO     FAIR      81  37  21 W10G22    30.01F
T OR C         FAIR      78  37  22 E7        30.02F

$$
NMZ519>523-242300-
CENTRAL VALLEYS/CENTRAL HIGHLANDS

CITY           SKY/WX    TMP DP  RH WIND       PRES   REMARKS
ALBUQUERQUE    FAIR      71  29  21 N13G21    30.10F
DOUBLE EAGLE   SUNNY     68  30  24 NW14      30.14F
MORIARTY ARPT  FAIR      67  25  20 NW8G21    30.14F
CLINES CORNERS FAIR      63  29  27 NW21      30.16F
BELEN          NOT AVBL
SOCORRO        FAIR      79  20  11 W9        30.05S

$$
NMZ524>526-539-540-242300-
SOUTHCENTRAL MOUNTAINS

CITY           SKY/WX    TMP DP  RH WIND       PRES   REMARKS
RUIDOSO        FAIR      68  30  24 NW14G22   30.16F

$$
NMZ527>531-242300-
NORTHEAST HIGHLANDS/NORTHEAST PLAINS

CITY           SKY/WX    TMP DP  RH WIND       PRES   REMARKS
LAS VEGAS      FAIR      69  24  18 VRB6      30.08F
RATON          FAIR      70  29  21 SE13      30.03F
CLAYTON        FAIR      78  28  16 SW7       29.98F

$$
NMZ532>537-242300-
EASTCENTRAL PLAINS

CITY           SKY/WX    TMP DP  RH WIND       PRES   REMARKS
TUCUMCARI      FAIR      84  22  10 W15G28    29.94F
CANNON AFB     FAIR      81  30  16 W18       29.97F
CLOVIS AIRPORT FAIR      81  37  21 SW17      29.98F

$$
NMZ028-029-538-242300-
SOUTHEAST PLAINS

CITY           SKY/WX    TMP DP  RH WIND       PRES   REMARKS
ROSWELL        PTSUNNY   85  47  26 E8        29.94F
ARTESIA        FAIR      84  48  28 SW16      29.93F
CARLSBAD       PTSUNNY   83  52  34 S6        29.92F
HOBBS          MOSUNNY   82  50  32 SW8G16    29.97F


$$




USA.gov is the U.S. government's official web portal to all federal, state and local government web resources and services.